World > North America > United States > North Carolina

Hourly Grifton, NC Regional Weather

Feedback E-mail the Weather

Latest News

Grifton, NC Weather Maps

°F °C°F °C
Grifton Weather Map
UTC Time: 5/28/2022, 11:04
Your Time:

Grifton, NC Regional Weather

Expires:202205281100;;696932
ASUS42 KMHX 281014
RWRMHX
WEATHER ROUNDUP FOR EASTERN NORTH CAROLINA
NATIONAL WEATHER SERVICE NEWPORT/MOREHEAD CITY NC
600 AM EDT SAT MAY 28 2022

NOTE: "FAIR" INDICATES FEW OR NO CLOUDS BELOW 12,000 FEET
WITH NO SIGNIFICANT WEATHER AND/OR OBSTRUCTIONS TO VISIBILITY


NCZ011>013-027>030-043-044-078>080-089-090>093-098-281100-
COASTAL PLAIN
  
CITY           SKY/WX    TMP DP  RH WIND       PRES   REMARKS
AHOSKIE          N/A     61  61 100 CALM      29.83R FOG              
ROCKY MOUNT    CLOUDY    64  62  93 CALM      29.84R                  
GREENVILLE     CLOUDY    64  64 100 CALM      29.84R                  
WASHINGTON     RAIN      70  63  78 NW6       29.85R                  
GOLDSBORO      CLEAR     70  62  76 W7        29.82R                  
KINSTON        MOCLDY    72  70  93 SW6       29.85R                  
NEW BERN       CLOUDY    72  70  93 W8        29.85R                  
HAVELOCK       CLEAR     70  68  93 SW6       29.84R                  
KENANSVILLE    CLOUDY    72  70  94 MISG      29.85R                  
RICHLANDS      CLOUDY    72  70  93 W5        29.86R                  
CLINTON        CLOUDY    72  72 100 SW5       29.85R                  
ELIZABETHTOWN  MOCLDY    71  69  93 W5        29.85S                  
WHITEVILLE     CLOUDY    71  69  92 SW3       29.86R                  

$$


SKY/WX - Weather  TMP - Temperature  DP - Dew Point  RH - Humidity
WIND - Wind Direction/Speed PRES - Barometric Pressure VSB - Visibility
WCI - Wind Chill Index E13G22 Wind - East Wind 13 mph/Gusts of 22 mph

Trending Headlines

Grifton Radar Loop



Grifton Quick Facts


National Two Day Weather Forecast


E-mail the Grifton Weather Forecast

Voice your opinion or tell us about page issues...